Kankakee, IL

10:08 AM CST on December 10, 2019 (GMT -0600)
Greater Kankakee

Weather History for KIKK - October, 2019

Change the Weather History Date:

Sunday, October 27, 2019

  Actual Average Record
Temperature  
Mean Temperature 51 °F -  
Max Temperature 61 °F 60 °F 77 °F (2014)
Min Temperature 41 °F 37 °F 25 °F (1988)
Degree Days  
Heating Degree Days 14    
Growing Degree Days 1 (Base 50)    
Moisture  
Dew Point 44 °F    
Average Humidity 80    
Maximum Humidity 98    
Minimum Humidity 53    
Precipitation  
Precipitation 0.08 in - - ()
Sea Level Pressure  
Sea Level Pressure 29.88 in    
Wind  
Wind Speed 14 mph (WSW)    
Max Wind Speed 24 mph    
Max Gust Speed 32 mph    
Visibility 10 miles    
Events Rain    
Averages and records for this station are not official NWS values.
T = Trace of Precipitation, MM = Missing Value Source: NWS Daily Summary

Daily Weather History Graph

Daily Weather History Graph

Search for Another Location

Airport or City:

Astronomy

Oct. 27, 2019 Rise Set
Actual Time 7:16 AM CDT 5:53 PM CDT
Civil Twilight 6:47 AM CDT 6:21 PM CDT
Nautical Twilight 6:15 AM CDT 6:54 PM CDT
Astronomical Twilight 5:43 AM CDT 7:26 PM CDT
Moon 6:23 AM CDT (10/27) 6:03 PM CDT (10/27)
Length of Visible Light 11h 34m
Length of Day
10h 37m
Waning Crescent, 0% of the Moon is Illuminated
Oct 27
Waning Crescent
Oct 27
New
Nov 4
First Quarter
Nov 12
Full
Nov 19
Last Quarter

Hourly Weather History & Observations

Time (CDT) Temp. Windchill Dew Point Humidity Pressure Visibility Wind Dir Wind Speed Gust Speed Precip Events Conditions
12:15 AM 48.6 °F - 47.8 °F 97% 29.42 in 4.0 mi NW 16.1 mph 24.2 mph 0.01 in Rain Light Rain
12:35 AM 46.9 °F - 46.4 °F 98% 29.45 in 10.0 mi NW 19.6 mph 31.1 mph 0.03 in Rain Rain
12:55 AM 46.6 °F - 46.0 °F 98% 29.49 in 10.0 mi WNW 18.4 mph 29.9 mph 0.07 in Rain Light Rain
1:15 AM 46.4 °F 38.5 °F 45.7 °F 97% 29.52 in 10.0 mi WNW 21.9 mph 29.9 mph 0.01 in Rain Light Rain
1:35 AM 46.4 °F 39.0 °F 45.5 °F 97% 29.55 in 10.0 mi WNW 19.6 mph 32.2 mph 0.01 in   Drizzle
1:55 AM 46.0 °F 38.3 °F 45.5 °F 98% 29.57 in 10.0 mi WNW 20.7 mph 32.2 mph 0.01 in   Overcast
2:15 AM 46.0 °F 38.0 °F 45.5 °F 98% 29.60 in 10.0 mi West 21.9 mph 29.9 mph N/A   Overcast
2:35 AM 46.0 °F 37.8 °F 45.5 °F 98% 29.63 in 10.0 mi West 23.0 mph 32.2 mph N/A   Overcast
2:55 AM 46.0 °F 37.6 °F 45.5 °F 98% 29.64 in 10.0 mi West 24.2 mph 31.1 mph N/A   Overcast
3:15 AM 46.4 °F 38.7 °F 45.9 °F 98% 29.67 in 10.0 mi West 20.7 mph 28.8 mph N/A   Overcast
3:55 AM 46.4 °F 39.8 °F 45.9 °F 98% 29.70 in 10.0 mi West 16.1 mph 23.0 mph N/A   Overcast
4:15 AM 46.4 °F 38.7 °F 45.9 °F 98% 29.72 in 10.0 mi West 20.7 mph - N/A   Overcast
4:35 AM 46.8 °F - 46.2 °F 98% 29.74 in 10.0 mi West 18.4 mph 26.5 mph N/A   Overcast
4:55 AM 46.9 °F - 46.4 °F 98% 29.75 in 10.0 mi West 21.9 mph 26.5 mph N/A   Overcast
5:15 AM 46.6 °F - 45.9 °F 97% 29.77 in 10.0 mi West 16.1 mph 26.5 mph N/A   Overcast
5:55 AM 45.1 °F 39.1 °F 44.6 °F 98% 29.80 in 10.0 mi West 12.7 mph 21.9 mph N/A   Overcast
6:15 AM 44.6 °F 37.8 °F 43.7 °F 97% 29.82 in 10.0 mi West 15.0 mph 20.7 mph N/A   Overcast
6:35 AM 43.5 °F 36.4 °F 42.3 °F 95% 29.83 in 10.0 mi West 15.0 mph 20.7 mph N/A   Mostly Cloudy
6:55 AM 42.3 °F 35.5 °F 41.2 °F 96% 29.83 in 10.0 mi West 12.7 mph - N/A   Clear
7:15 AM 41.5 °F 35.4 °F 40.5 °F 96% 29.84 in 10.0 mi West 10.4 mph - N/A   Clear
7:35 AM 41.2 °F 36.0 °F 39.9 °F 95% 29.85 in 10.0 mi West 8.1 mph - N/A   Clear
7:55 AM 41.4 °F 35.7 °F 39.9 °F 95% 29.87 in 10.0 mi West 9.2 mph - N/A   Clear
8:15 AM 42.3 °F 35.5 °F 39.9 °F 91% 29.89 in 10.0 mi West 12.7 mph - N/A   Clear
8:35 AM 43.3 °F 36.5 °F 40.1 °F 88% 29.91 in 10.0 mi West 13.8 mph 17.3 mph N/A   Clear
8:55 AM 44.1 °F 37.4 °F 40.1 °F 86% 29.92 in 10.0 mi West 13.8 mph - N/A   Clear
9:15 AM 44.8 °F 38.3 °F 40.3 °F 84% 29.93 in 10.0 mi West 13.8 mph 18.4 mph N/A   Clear
9:35 AM 45.5 °F 38.9 °F 40.1 °F 81% 29.94 in 10.0 mi West 15.0 mph - N/A   Clear
9:55 AM 46.4 °F 41.1 °F 40.3 °F 79% 29.94 in 10.0 mi West 11.5 mph 19.6 mph N/A   Clear
10:15 AM 47.7 °F - 40.3 °F 76% 29.95 in 10.0 mi West 12.7 mph - N/A   Clear
10:35 AM 48.6 °F - 40.6 °F 74% 29.96 in 10.0 mi West 10.4 mph - N/A   Clear
10:55 AM 49.6 °F - 41.2 °F 73% 29.96 in 10.0 mi West 10.4 mph - N/A   Clear
11:15 AM 50.4 °F - 41.2 °F 71% 29.96 in 10.0 mi West 9.2 mph - N/A   Clear
11:35 AM 51.1 °F - 40.1 °F 66% 29.97 in 10.0 mi West 8.1 mph - N/A   Clear
11:55 AM 52.5 °F - 41.0 °F 65% 29.97 in 10.0 mi West 8.1 mph - N/A   Clear
12:15 PM 53.2 °F - 41.2 °F 64% 29.96 in 10.0 mi West 6.9 mph - N/A   Clear
12:35 PM 54.5 °F - 41.0 °F 60% 29.96 in 10.0 mi West 5.8 mph - N/A   Clear
12:55 PM 54.7 °F - 40.5 °F 59% 29.95 in 10.0 mi WSW 9.2 mph - N/A   Clear
1:35 PM 56.7 °F - 41.7 °F 57% 29.95 in 10.0 mi WSW 8.1 mph - N/A   Clear
1:55 PM 57.2 °F - 41.5 °F 56% 29.95 in 10.0 mi SSW 6.9 mph - N/A   Clear
2:15 PM 58.1 °F - 42.8 °F 57% 29.95 in 10.0 mi SW 9.2 mph - N/A   Clear
2:35 PM 58.8 °F - 43.0 °F 56% 29.95 in 10.0 mi WSW 10.4 mph - N/A   Clear
2:55 PM 59.2 °F - 42.6 °F 54% 29.95 in 10.0 mi WSW 8.1 mph - N/A   Clear
3:15 PM 59.9 °F - 43.9 °F 55% 29.96 in 10.0 mi WSW 9.2 mph - N/A   Clear
3:35 PM 60.3 °F - 43.9 °F 55% 29.96 in 10.0 mi WSW 8.1 mph - N/A   Clear
3:55 PM 60.8 °F - 43.9 °F 54% 29.97 in 10.0 mi SW 5.8 mph - N/A   Clear
4:15 PM 61.0 °F - 43.9 °F 53% 29.97 in 10.0 mi SW 9.2 mph - N/A   Clear
4:35 PM 61.0 °F - 44.6 °F 55% 29.96 in 10.0 mi SSW 5.8 mph - N/A   Clear
4:55 PM 60.4 °F - 45.3 °F 57% 29.96 in 10.0 mi SSW 4.6 mph - N/A   Clear
5:15 PM 59.7 °F - 45.7 °F 60% 29.96 in 10.0 mi South 6.9 mph - N/A   Clear
5:35 PM 58.3 °F - 45.5 °F 62% 29.97 in 10.0 mi SSW 4.6 mph - N/A   Clear
5:55 PM 56.1 °F - 45.5 °F 68% 29.97 in 10.0 mi SSW 4.6 mph - N/A   Clear
6:15 PM 54.5 °F - 45.0 °F 70% 29.98 in 10.0 mi South 4.6 mph - N/A   Clear
6:35 PM 53.8 °F - 45.1 °F 73% 29.98 in 10.0 mi South 4.6 mph - N/A   Clear
6:55 PM 53.4 °F - 45.5 °F 75% 29.99 in 10.0 mi South 4.6 mph - N/A   Clear
7:15 PM 52.7 °F - 45.1 °F 75% 29.99 in 10.0 mi South 4.6 mph - N/A   Clear
7:35 PM 52.9 °F - 45.1 °F 75% 29.99 in 10.0 mi South 5.8 mph - N/A   Clear
7:55 PM 52.7 °F - 45.0 °F 75% 29.99 in 10.0 mi South 6.9 mph - N/A   Clear
8:15 PM 51.8 °F - 45.3 °F 79% 29.99 in 10.0 mi South 6.9 mph - N/A   Clear
8:35 PM 51.3 °F - 45.5 °F 81% 29.99 in 10.0 mi South 5.8 mph - N/A   Clear
8:55 PM 51.3 °F - 45.5 °F 81% 29.99 in 10.0 mi SSW 5.8 mph - N/A   Clear
9:15 PM 50.4 °F - 45.1 °F 82% 30.00 in 10.0 mi SSW 4.6 mph - N/A   Clear
9:35 PM 50.2 °F - 45.1 °F 83% 30.01 in 10.0 mi SSW 4.6 mph - N/A   Clear
9:55 PM 49.6 °F - 45.5 °F 86% 30.01 in 10.0 mi SSW 5.8 mph - N/A   Clear
10:15 PM 48.7 °F - 45.1 °F 87% 30.01 in 10.0 mi SSW 5.8 mph - N/A   Clear
10:30 PM 48.7 °F - 45.1 °F 87% 30.01 in 10.0 mi South 5.8 mph - N/A   Clear
10:55 PM 48.9 °F - 46.2 °F 90% 30.01 in 10.0 mi SSW 5.8 mph - N/A   Clear
11:15 PM 47.5 °F - 45.1 °F 92% 30.00 in 10.0 mi South 5.8 mph - N/A   Clear
11:35 PM 48.2 °F - 46.6 °F 94% 30.01 in 10.0 mi SSW 6.9 mph - N/A   Clear
11:55 PM 47.5 °F - 46.0 °F 95% 30.01 in 10.0 mi SSW 6.9 mph - N/A   Clear